EN

Hourly Weather Lagoa Seca

Today, 30 July, Friday

Time Temperature Precipitation Wind Pressure Humidity
00:00 +20°C° 0 mm 1 mps 712 mmHg 96%
01:00 +19°C° 0 mm 1 mps 712 mmHg 96%
02:00 +19°C° 0 mm 1 mps 712 mmHg 96%
03:00 +19°C° 0 mm 1 mps 712 mmHg 97%
04:00 +19°C° 0 mm 1 mps 711 mmHg 97%
05:00 +19°C° 0 mm 1 mps 712 mmHg 97%
06:00 +18°C° 0 mm 1 mps 712 mmHg 97%
07:00 +17°C° 0 mm 2 mps 712 mmHg 98%
08:00 +20°C° 0 mm 3 mps 713 mmHg 85%
09:00 +22°C° 0 mm 4 mps 714 mmHg 72%
10:00 +26°C° 0 mm 5 mps 714 mmHg 60%
11:00 +28°C° 0 mm 5 mps 714 mmHg 51%
12:00 +29°C° 0 mm 5 mps 714 mmHg 41%
13:00 +32°C° 0 mm 5 mps 713 mmHg 32%
14:00 +32°C° 0 mm 6 mps 713 mmHg 33%
15:00 +32°C° 0 mm 6 mps 712 mmHg 34%
16:00 +32°C° 0 mm 6 mps 712 mmHg 35%
17:00 +28°C° 0 mm 6 mps 712 mmHg 48%
18:00 +26°C° 0 mm 6 mps 713 mmHg 62%
19:00 +22°C° 0 mm 6 mps 713 mmHg 75%
20:00 +21°C° 0 mm 5 mps 713 mmHg 80%
21:00 +20°C° 0 mm 4 mps 713 mmHg 86%
22:00 +19°C° 0 mm 3 mps 714 mmHg 91%
23:00 +19°C° 0 mm 3 mps 714 mmHg 92%

Tomorrow, 31 July, Saturday

Time Temperature Precipitation Wind Pressure Humidity
00:00 +19°C° 0 mm 3 mps 714 mmHg 93%
01:00 +19°C° 0 mm 3 mps 714 mmHg 94%
02:00 +19°C° 0 mm 3 mps 713 mmHg 95%
03:00 +18°C° 0 mm 3 mps 713 mmHg 95%
04:00 +18°C° 0 mm 3 mps 713 mmHg 95%
05:00 +18°C° 0 mm 3 mps 713 mmHg 95%
06:00 +18°C° 0 mm 3 mps 713 mmHg 94%
07:00 +18°C° 0 mm 3 mps 714 mmHg 94%
08:00 +20°C° 0 mm 4 mps 714 mmHg 84%
09:00 +22°C° 0 mm 5 mps 715 mmHg 73%
10:00 +26°C° 0 mm 7 mps 716 mmHg 63%
11:00 +27°C° 0 mm 7 mps 715 mmHg 56%
12:00 +29°C° 0 mm 7 mps 715 mmHg 50%
13:00 +30°C° 0 mm 7 mps 715 mmHg 43%
14:00 +30°C° 0 mm 7 mps 714 mmHg 43%
15:00 +30°C° 0 mm 7 mps 714 mmHg 42%
16:00 +29°C° 0 mm 7 mps 713 mmHg 42%
17:00 +27°C° 0 mm 7 mps 714 mmHg 53%
18:00 +24°C° 0 mm 6 mps 714 mmHg 64%
19:00 +22°C° 0 mm 5 mps 714 mmHg 75%
20:00 +21°C° 0 mm 5 mps 715 mmHg 79%
21:00 +21°C° 0 mm 5 mps 715 mmHg 84%
22:00 +20°C° 0 mm 4 mps 715 mmHg 89%
23:00 +19°C° 0 mm 4 mps 715 mmHg 90%

Day after tomorrow, 1 August, Sunday

Time Temperature Precipitation Wind Pressure Humidity
00:00 +19°C° 0 mm 4 mps 715 mmHg 92%
01:00 +19°C° 0 mm 4 mps 714 mmHg 93%
02:00 +19°C° 0 mm 4 mps 714 mmHg 94%
03:00 +19°C° 0 mm 4 mps 714 mmHg 94%
04:00 +18°C° 0 mm 4 mps 713 mmHg 95%
05:00 +18°C° 0 mm 4 mps 714 mmHg 95%
06:00 +19°C° 0 mm 4 mps 714 mmHg 95%
07:00 +19°C° 0 mm 4 mps 714 mmHg 95%
08:00 +20°C° 0.1 mm 5 mps 715 mmHg 85%
09:00 +22°C° 0.1 mm 6 mps 715 mmHg 76%
10:00 +24°C° 0.1 mm 7 mps 716 mmHg 66%
11:00 +26°C° 0.3 mm 7 mps 715 mmHg 66%
12:00 +26°C° 0.3 mm 7 mps 715 mmHg 65%
13:00 +26°C° 0.3 mm 7 mps 715 mmHg 64%
14:00 +26°C° 0.3 mm 7 mps 714 mmHg 67%
15:00 +24°C° 0.3 mm 7 mps 714 mmHg 69%
16:00 +24°C° 0.3 mm 7 mps 713 mmHg 72%
17:00 +23°C° 0.4 mm 6 mps 714 mmHg 78%
18:00 +21°C° 0.4 mm 5 mps 714 mmHg 85%
19:00 +20°C° 0.4 mm 5 mps 715 mmHg 92%
20:00 +20°C° 0.1 mm 5 mps 715 mmHg 92%
21:00 +19°C° 0.1 mm 5 mps 715 mmHg 93%
22:00 +19°C° 0.1 mm 5 mps 715 mmHg 94%
23:00 +19°C° 0 mm 5 mps 715 mmHg 94%

2 August, Monday

Time Temperature Precipitation Wind Pressure Humidity
00:00 +19°C° 0 mm 4 mps 715 mmHg 94%
01:00 +19°C° 0 mm 4 mps 714 mmHg 94%
02:00 +19°C° 0 mm 4 mps 714 mmHg 94%
03:00 +19°C° 0 mm 4 mps 714 mmHg 93%
04:00 +19°C° 0 mm 4 mps 713 mmHg 93%
05:00 +19°C° 0 mm 4 mps 714 mmHg 93%
06:00 +19°C° 0 mm 4 mps 714 mmHg 93%
07:00 +19°C° 0 mm 4 mps 714 mmHg 93%
08:00 +20°C° 0.1 mm 4 mps 715 mmHg 89%
09:00 +21°C° 0.1 mm 5 mps 715 mmHg 86%
10:00 +22°C° 0.1 mm 5 mps 715 mmHg 82%
11:00 +23°C° 0.1 mm 6 mps 715 mmHg 76%
12:00 +24°C° 0.1 mm 6 mps 715 mmHg 69%
13:00 +27°C° 0.1 mm 6 mps 714 mmHg 63%
14:00 +27°C° 0.1 mm 6 mps 714 mmHg 63%
15:00 +26°C° 0.1 mm 6 mps 713 mmHg 64%
16:00 +26°C° 0.1 mm 6 mps 713 mmHg 64%
17:00 +25°C° 0.2 mm 5 mps 713 mmHg 73%
18:00 +22°C° 0.2 mm 4 mps 713 mmHg 81%
19:00 +20°C° 0.2 mm 3 mps 714 mmHg 90%
20:00 +20°C° 0.1 mm 3 mps 714 mmHg 92%
21:00 +19°C° 0.1 mm 3 mps 714 mmHg 94%
22:00 +19°C° 0.1 mm 2 mps 714 mmHg 96%
23:00 +19°C° 0 mm 2 mps 714 mmHg 97%

3 August, Tuesday

Time Temperature Precipitation Wind Pressure Humidity
00:00 +19°C° 0 mm 2 mps 714 mmHg 97%
01:00 +18°C° 0 mm 2 mps 713 mmHg 97%
02:00 +18°C° 0 mm 2 mps 713 mmHg 97%
03:00 +18°C° 0 mm 2 mps 713 mmHg 97%
04:00 +18°C° 0 mm 2 mps 712 mmHg 97%
05:00 +18°C° 0 mm 2 mps 713 mmHg 97%
06:00 +18°C° 0 mm 2 mps 713 mmHg 96%
07:00 +18°C° 0 mm 2 mps 713 mmHg 96%
08:00 +20°C° 0.1 mm 3 mps 714 mmHg 89%
09:00 +22°C° 0.1 mm 4 mps 714 mmHg 81%
10:00 +23°C° 0.1 mm 5 mps 715 mmHg 73%
11:00 +26°C° 0.1 mm 5 mps 714 mmHg 66%
12:00 +27°C° 0.1 mm 5 mps 714 mmHg 58%
13:00 +28°C° 0.1 mm 5 mps 713 mmHg 51%
14:00 +28°C° 0 mm 5 mps 713 mmHg 52%
15:00 +27°C° 0 mm 5 mps 713 mmHg 54%
16:00 +27°C° 0 mm 5 mps 712 mmHg 56%
17:00 +26°C° 0.1 mm 4 mps 712 mmHg 62%
18:00 +23°C° 0.1 mm 4 mps 713 mmHg 67%
19:00 +22°C° 0.1 mm 4 mps 713 mmHg 73%
20:00 +21°C° 0 mm 3 mps 713 mmHg 80%
21:00 +20°C° 0 mm 3 mps 714 mmHg 87%
22:00 +19°C° 0 mm 2 mps 714 mmHg 94%
23:00 +19°C° 0 mm 2 mps 714 mmHg 95%

4 August, Wednesday

Time Temperature Precipitation Wind Pressure Humidity
00:00 +18°C° 0 mm 2 mps 714 mmHg 96%
01:00 +18°C° 0 mm 2 mps 713 mmHg 97%
02:00 +18°C° 0 mm 2 mps 713 mmHg 97%
03:00 +18°C° 0 mm 2 mps 713 mmHg 97%
04:00 +18°C° 0 mm 2 mps 713 mmHg 97%
05:00 +18°C° 0 mm 2 mps 713 mmHg 96%
06:00 +18°C° 0 mm 2 mps 713 mmHg 96%
07:00 +18°C° 0 mm 2 mps 713 mmHg 96%
08:00 +20°C° 0 mm 3 mps 714 mmHg 83%
09:00 +23°C° 0 mm 4 mps 714 mmHg 71%
10:00 +26°C° 0 mm 5 mps 715 mmHg 58%
11:00 +28°C° 0 mm 5 mps 714 mmHg 53%
12:00 +29°C° 0 mm 5 mps 714 mmHg 48%
13:00 +30°C° 0 mm 5 mps 714 mmHg 42%
14:00 +30°C° 0 mm 5 mps 713 mmHg 44%
15:00 +29°C° 0 mm 5 mps 713 mmHg 46%
16:00 +29°C° 0 mm 5 mps 713 mmHg 48%
17:00 +27°C° 0 mm 5 mps 713 mmHg 55%
18:00 +26°C° 0 mm 5 mps 713 mmHg 63%
19:00 +23°C° 0 mm 4 mps 714 mmHg 70%
20:00 +22°C° 0 mm 4 mps 714 mmHg 78%
21:00 +21°C° 0 mm 3 mps 714 mmHg 85%
22:00 +20°C° 0 mm 2 mps 715 mmHg 92%
23:00 +19°C° 0 mm 2 mps 714 mmHg 93%
Show more